TimeCST,TemperatureF,Dew PointF,Humidity,Sea Level PressureIn,VisibilityMPH,Wind Direction,Wind SpeedMPH,Gust SpeedMPH,PrecipitationIn,Events,Conditions,WindDirDegrees,DateUTC
12:53 AM,18.0,14.0,84,30.38,10.0,ENE,4.6,-,N/A,,Clear,60,2013-01-15 06:53:00
1:53 AM,16.0,14.0,92,30.38,10.0,NE,5.8,-,N/A,,Clear,50,2013-01-15 07:53:00
2:53 AM,16.0,12.9,88,30.38,10.0,ENE,4.6,-,N/A,,Clear,70,2013-01-15 08:53:00
3:53 AM,15.1,12.9,91,30.37,10.0,ENE,3.5,-,N/A,,Clear,70,2013-01-15 09:53:00
4:53 AM,15.8,12.2,86,30.31,10.0,ENE,4.6,-,N/A,,Clear,60,2013-01-15 10:53:00
5:53 AM,15.1,12.0,88,30.35,10.0,ENE,5.8,-,N/A,,Clear,70,2013-01-15 11:53:00
6:53 AM,17.1,14.0,88,30.34,10.0,ENE,5.8,-,N/A,,Clear,70,2013-01-15 12:53:00
7:53 AM,18.0,15.1,88,30.33,10.0,NE,5.8,-,N/A,,Partly Cloudy,50,2013-01-15 13:53:00
8:53 AM,19.9,15.1,81,30.39,10.0,East,4.6,-,N/A,,Mostly Cloudy,100,2013-01-15 14:53:00
9:53 AM,21.0,15.1,78,30.38,10.0,ENE,4.6,-,N/A,,Partly Cloudy,60,2013-01-15 15:53:00
10:53 AM,24.1,17.1,75,30.34,10.0,NE,5.8,-,N/A,,Mostly Cloudy,40,2013-01-15 16:53:00
11:53 AM,26.1,18.0,71,30.31,10.0,North,6.9,-,N/A,,Scattered Clouds,10,2013-01-15 17:53:00
12:53 PM,27.0,18.0,69,30.26,10.0,NNE,8.1,-,N/A,,Overcast,30,2013-01-15 18:53:00
1:53 PM,28.0,19.0,69,30.25,10.0,NNE,6.9,-,N/A,,Overcast,30,2013-01-15 19:53:00
2:53 PM,28.9,19.0,67,30.24,10.0,NNE,5.8,-,N/A,,Overcast,30,2013-01-15 20:53:00
3:53 PM,28.9,18.0,64,30.26,10.0,NE,5.8,-,N/A,,Overcast,40,2013-01-15 21:53:00
4:53 PM,28.0,19.0,69,30.26,10.0,NE,5.8,-,N/A,,Overcast,40,2013-01-15 22:53:00
5:53 PM,26.1,19.0,75,30.27,10.0,North,5.8,-,N/A,,Overcast,360,2013-01-15 23:53:00
6:53 PM,23.0,16.0,74,30.27,10.0,North,5.8,-,N/A,,Scattered Clouds,360,2013-01-16 00:53:00
7:53 PM,21.9,16.0,78,30.27,10.0,North,5.8,-,N/A,,Clear,360,2013-01-16 01:53:00
8:53 PM,19.9,15.1,81,30.24,10.0,Calm,Calm,-,N/A,,Clear,0,2013-01-16 02:53:00
9:53 PM,19.9,16.0,85,30.24,10.0,Calm,Calm,-,N/A,,Clear,0,2013-01-16 03:53:00
10:53 PM,17.1,12.9,84,30.25,9.0,West,3.5,-,N/A,,Clear,270,2013-01-16 04:53:00
11:53 PM,16.0,12.0,84,30.23,9.0,Calm,Calm,-,N/A,,Clear,0,2013-01-16 05:53:00